Regional Weather Roundup
Issued by NWS Cleveland, OH

Home | Current Version | Previous Version | Graphics & Text | Print | Product List | Glossary On
Versions: 1 2 3 4 5 6 7 8 9 10 11 12 13 14 15 16 17 18 19 20 21 22 23 24 25 26 27 28 29 30 31 32 33 34 35 36 37 38 39 40 41 42 43 44 45 46 47 48 49 50
429
ASUS41 KCLE 291610
RWRCLE
OHIO REGIONAL WEATHER ROUNDUP
NATIONAL WEATHER SERVICE WILMINGTON, OH
1200 PM EDT THU JUN 29 2017

NOTE: "FAIR" INDICATES FEW OR NO CLOUDS BELOW 12,000 FEET WITH NO
SIGNIFICANT WEATHER AND/OR OBSTRUCTIONS TO VISIBILITY.

OHZ001>008-015>018-024>027-034-035-043-044-291700-
   NORTHWEST OHIO

CITY           SKY/WX    TMP DP  RH WIND       PRES   REMARKS
DEFIANCE       LGT RAIN  81  63  54 SW21G32   29.87S
FINDLAY        FAIR      84  64  50 SW20G26   29.90F
TOLEDO EXPRESS FAIR      80  65  59 SW15G29   29.87R
TOLEDO EXEC    FAIR      82  64  54 SW20G30   29.88S
LIMA           PTSUNNY   82  64  54 SW22G31   29.93S
$$

OHZ009>014-019>023-028>033-038-089-291700-
   NORTHEAST OHIO

CITY           SKY/WX    TMP DP  RH WIND       PRES   REMARKS
CLE-HOPKINS    PTSUNNY   83  63  50 SW22G28   29.94F
CLE-LAKEFRONT  FAIR      83  61  47 S16G31    29.90F
CUY CO. ARPT   MOSUNNY   82  63  51 W17       29.93F
LORAIN-ELYRIA  FAIR      82  59  45 W25G37    29.93S
ASHTABULA      FAIR      79  61  53 SW16G25   29.95F
AKRON-CANTON   PTSUNNY   81  61  50 SW17G25   30.00S
WOOSTER        FAIR      81  62  52 SW14      29.99S
MANSFIELD      FAIR      80  63  55 SW20G26   29.98S
YOUNGSTOWN     CLOUDY    79  61  53 SW12      30.00S
$$

OHZ042-051>053-060>062-070>072-077>081-291700-
  SOUTHWEST OHIO

CITY           SKY/WX    TMP DP  RH WIND       PRES   REMARKS
CINC-COVINGTON PTSUNNY   81  70  69 S16G28    30.00S
CINC-LUNKEN    FAIR      81  69  67 SW20G29   29.99S
HAMILTON       FAIR      83  69  62 SW13G24   29.98S
DAYTON         PTSUNNY   81  64  56 SW20G31   29.98R
WRIGHT-PAT AFB FAIR      83  66  57 SW23G31   29.97R
DAYTON GENERAL FAIR      80  66  62 SW16G25   29.98R
WILMINGTON     PTSUNNY   79  68  69 SW23G32   30.00S
$$

OHZ036-037-039>041-045>050-054>059-063>069-073>076-082>088-291700-
  CENTRAL AND SOUTHEAST OHIO

CITY           SKY/WX    TMP DP  RH WIND       PRES   REMARKS
COLUMBUS       PTSUNNY   82  66  58 SW22G28   30.00S
OSU AIRPORT    FAIR      82  66  58 SW21G32   29.99R
BOLTON FIELD   PTSUNNY   81  66  61 SW18G25   30.01S
RICKENBACK AFB PTSUNNY   81  66  59 SW22      30.00R
NEWARK         FAIR      83  62  49 SW17G23   30.00F
MARION         FAIR      82  62  50 SW22G28   29.97S
LANCASTER      FAIR      79  66  64 S16G23    30.02F
ZANESVILLE     FAIR      80  64  58 S12G23    30.02F
NEW PHILLY     FAIR      81  63  54 SW9G21    30.02F
$$




USA.gov is the U.S. government's official web portal to all federal, state and local government web resources and services.